Location: *
(43.4667°N, 11.6833°E)
Time: 08:14:43
(UTC+00:00)

Cosmos 1633 - Pass Details

Date: 19 July 2019
Orbit: 467 x 482 km, 82.5° (Epoch: 18 August)

Event Time Altitude Azimuth Distance (km) Brightness Sun altitude
Exits shadow 22:31:24 39° 309° (NW) 723 3.7 -24.8°
Drops below altitude 10° 22:34:16 10° 355° (N) 1,644 6.3 -24.9°
Sets 22:36:27 0° 2° (N) 2,530 7.5 -25.0°
